CST,Max TemperatureF,Mean TemperatureF,Min TemperatureF,Max Dew PointF,MeanDew PointF,Min DewpointF,Max Humidity, Mean Humidity, Min Humidity, Max Sea Level PressureIn, Mean Sea Level PressureIn, Min Sea Level PressureIn, Max VisibilityMiles, Mean VisibilityMiles, Min VisibilityMiles, Max Wind SpeedMPH, Mean Wind SpeedMPH, Max Gust SpeedMPH,PrecipitationIn, CloudCover, Events, WindDirDegrees
2013-12-1,32,30,28,26,25,25,88,81,75,30.17,30.10,30.01,10,9,6,7,4,,0.00,8,,326
2013-12-2,34,30,27,25,23,21,89,75,59,30.00,29.90,29.83,10,9,2,10,4,17,0.00,8,Snow,119
2013-12-3,30,27,24,27,23,19,93,85,72,29.95,29.87,29.81,10,4,0,10,7,16,0.07,8,Fog-Snow,70
2013-12-4,37,30,24,36,27,21,100,91,84,29.93,29.65,29.31,10,3,0,14,6,26,0.19,8,Fog-Rain-Snow,88
2013-12-5,34,20,5,32,10,-3,93,69,58,30.16,29.77,29.36,10,10,2,21,14,32,0.00,6,Snow,262
2013-12-6,12,6,0,-1,-4,-8,76,69,53,30.48,30.33,30.19,10,10,10,14,8,,0.00,1,,281
2013-12-7,9,2,-6,-5,-9,-12,76,66,53,30.62,30.57,30.48,10,10,10,9,7,,0.00,0,,272
2013-12-8,9,0,-7,5,-2,-13,87,75,58,30.58,30.28,29.95,10,5,1,6,3,,0.00,7,Snow,338
2013-12-9,14,4,-7,7,0,-13,88,73,58,30.05,29.87,29.75,10,6,2,20,7,30,0.00,6,Snow,278
2013-12-10,10,0,-9,-2,-8,-13,84,72,58,30.14,29.91,29.75,10,7,0,17,4,25,0.00,4,Snow,254
2013-12-11,5,-1,-7,-8,-11,-15,72,65,50,30.42,30.33,30.15,10,10,10,15,8,23,0.00,0,,281
2013-12-12,12,2,-8,3,-5,-15,72,64,51,30.34,30.20,30.12,10,10,10,12,6,21,0.00,6,,269
2013-12-13,12,6,1,4,-3,-5,76,65,51,30.41,30.29,30.06,10,10,9,13,7,,0.00,4,,348
2013-12-14,15,9,3,10,6,-2,88,77,67,30.40,30.09,29.81,10,4,1,6,2,,0.00,8,Snow,32
2013-12-15,12,5,-6,8,0,-10,84,71,56,30.11,29.93,29.84,10,9,3,21,9,30,0.00,2,Snow,303
2013-12-16,16,0,-15,9,0,-20,87,78,57,30.16,29.99,29.82,10,6,1,12,4,,0.00,6,Snow,185
2013-12-17,26,14,3,18,10,1,92,76,60,29.99,29.84,29.73,10,9,6,17,5,23,0.00,8,Snow,289
2013-12-18,19,11,3,5,3,1,88,68,50,30.03,29.89,29.73,10,10,10,15,7,16,0.00,4,,186
2013-12-19,24,12,1,19,11,-2,88,75,62,30.13,30.00,29.78,10,10,10,18,7,24,0.00,6,,348
2013-12-20,23,18,12,16,13,10,92,82,68,30.08,29.97,29.87,10,6,2,8,4,,0.00,8,Snow,353
2013-12-21,24,19,14,16,14,11,92,81,69,30.02,29.95,29.87,10,10,10,6,3,,0.00,4,,4
2013-12-22,24,21,17,18,15,10,86,79,65,30.13,29.96,29.86,10,4,1,13,7,21,0.00,7,Snow,10
2013-12-23,17,13,6,13,7,1,85,72,62,30.40,30.28,30.14,10,8,2,14,7,,0.00,8,Snow,330
2013-12-24,17,4,-9,5,-2,-15,92,72,52,30.50,30.39,30.19,10,9,1,10,3,,0.00,2,Snow,177
2013-12-25,17,12,8,10,6,1,85,77,62,30.22,30.06,29.95,10,6,1,14,7,,0.01,7,Snow,203
2013-12-26,12,2,-11,4,-1,-16,87,78,65,30.25,30.15,30.02,10,10,7,8,3,,0.00,4,,283
2013-12-27,32,10,-11,26,10,-16,93,83,75,30.25,30.05,29.82,10,8,4,12,3,,0.00,6,,187
2013-12-28,37,32,28,30,27,24,96,86,70,29.96,29.81,29.72,10,7,2,21,6,28,0.00,7,Rain-Snow,350
2013-12-29,26,10,-7,21,2,-13,86,70,58,30.20,29.99,29.76,10,9,2,25,18,34,0.00,6,Rain-Snow,336
2013-12-30,5,-4,-14,-9,-14,-20,78,64,50,30.29,30.21,30.04,10,10,9,10,4,,0.00,3,,301
2013-12-31,1,-4,-13,-11,-15,-19,75,65,50,30.42,30.24,30.12,10,10,10,13,7,21,0.00,0,,290